• Join FlightAware (Why Join?)
  • Login
  • US Flag 
04:11PM EST


 

Airport Tracker/Info


-or-


 

Live Flight TrackerFlight Track Log ✈ N610GH ✈ 10-Jun-2013 ✈ KOJC - KOJC

Flight Track Log - Related Links

Times and Time Zones

All times are in EDT time to prevent confusion due to time zone crossing. See the N610GH flight status page for this flight to view local times or setup timezone preferences in your user account.

Time Position Orientation Groundspeed Altitude Reporting Facility
EDT Latitude Longitude Course Direction KTS MPH feet Rate Location/Type
04:45PM 38.8333 -94.7167 170° South 129 148 2,400  Level Kansas City TRACON
04:45PM 38.8183 -94.7133 170° South 107 123 3,100 1,500 Climbing Kansas City Center
04:46PM 38.7953 -94.6894 141° Southeast 112 129 4,600 1,560 Climbing Kansas City Center
04:47PM 38.7650 -94.6608 144° Southeast 118 136 6,400 1,560 Climbing Kansas City Center
04:48PM 38.7358 -94.6356 146° Southeast 134 154 7,900 1,680 Climbing Kansas City Center
04:49PM 38.6972 -94.6139 156° South 138 159 9,900 1,800 Climbing Kansas City Center
04:50PM 38.6614 -94.5883 151° Southeast 150 173 11,600 1,680 Climbing Kansas City Center
04:51PM 38.6203 -94.5758 167° South 158 182 13,400 1,680 Climbing Kansas City Center
04:52PM 38.5683 -94.5650 171° South 169 194 15,100 1,620 Climbing Kansas City Center
04:53PM 38.5239 -94.5506 166° South 173 199 16,700 960 Climbing Kansas City Center
04:54PM 38.4583 -94.5406 173° South 225 259 17,200 120 Climbing Kansas City Center
04:56PM 38.3844 -94.5344 176° South 277 319 17,000 -120 Descending Kansas City Center
04:57PM 38.2922 -94.5281 177° South 295 339 17,000  Level Kansas City Center
04:58PM 38.2131 -94.5219 177° South 296 341 17,000 -360 Level Kansas City Center
04:59PM 38.1356 -94.5711 207° Southwest 287 330 16,300 -1,080 Descending Kansas City Center
05:00PM 38.1239 -94.6611 261° West 285 328 14,900 -1,500 Descending Kansas City Center
05:01PM 38.1972 -94.6936 341° North 266 306 13,200 -1,560 Descending Kansas City Center
05:02PM 38.2694 -94.7000 356° North 270 311 11,700 -1,560 Descending Kansas City Center
05:03PM 38.3403 -94.7042 357° North 267 307 10,100 -1,860 Descending Kansas City Center
05:04PM 38.4206 -94.7106 356° North 260 299 7,900 -1,800 Descending Kansas City Center
05:05PM 38.4883 -94.7147 357° North 253 291 6,400 -960 Descending Kansas City Center
05:06PM 38.5569 -94.7172 358° North 219 252 6,000 -720 Descending Kansas City Center
05:07PM 38.6081 -94.7206 357° North 195 224 5,000 -1,020 Descending Kansas City Center
05:08PM 38.6639 -94.7247 357° North 176 203 4,000 -540 Descending Kansas City Center
05:09PM 38.7075 -94.7247 360° North 170 196 4,000 -660 Level Kansas City Center
05:10PM 38.7683 -94.7278 358° North 194 223 2,700 -1,020 Descending Kansas City Center
05:11PM 38.8044 -94.7361 350° North 137 158 2,000 -540 Descending Kansas City Center
05:12PM 38.8336 -94.7383 357° North 119 137 1,700 -300 Descending Kansas City Center
05:14PM 38.8476 -94.7376 180° South  Level Estimated
05:21PM 38.8476 -94.7376 176° South  Level Estimated
05:22PM 38.8476 -94.7376 174° South  Level Estimated